Home > Weather > Nikšić > Past weeks

Flag for Montenegro Past Weather in Nikšić, Montenegro — Yesterday and Last 2 Weeks

Now
67 °F

Passing clouds.


Feels Like: 67 °F
Forecast: 58 / 84 °F
Wind: 2 mph from East

Location: Niksic

Current Time: Jun 30, 2016 at 5:21:15 AM

Latest Report: Jun 29, 2016 at 11:00 PM


Visibility: 13 mi

Pressure: 29.98 "Hg (27.84 "Hg at 635m altitude)

Humidity: 73%

Dew Point: 58 °F

Location of NikšićLocation

Past Weather in Nikšić — Graph

°F

Nikšić Temperature Yesterday

Maximum temperature yesterday: 83 °F (at 5:00 PM)
Minimum temperature yesterday: 61 °F (at 5:00 AM)
Average temperature yesterday: 72 °F

High & Low Weather Summary for the Past Weeks

 TemperatureHumidityPressure
High91 °F (Jun 22, 3:00 PM)100% (Jun 14, 11:00 PM)30.14 "Hg (Jun 14, 11:00 PM)
Low51 °F (Jun 18, 9:00 AM)37% (Jun 21, 9:00 PM)29.72 "Hg (Jun 14, 11:00 PM)
Average72 °F76%29.95 "Hg
* Reported Jun 14 11:00 PM — Jun 29 11:00 PM, Nikšić, Weather by CustomWeather, © 2016

Note: Actual official high and low records may vary slightly from our data, if they occured in-between our weather recording intervals... More about our weather records

Advertising

Nikšić Weather History for the Previous 24 Hours

Scroll right to see more
 ConditionsComfort  
Time TempWeatherWind HumidityBarometerVisibility
11:00 PM
Wed, Jun 29
67 °FPassing clouds.2 mph73%29.98 "Hg12 mi
10:00 PM70 °FPassing clouds.2 mph64%29.96 "Hg12 mi
9:00 PM72 °FPassing clouds.2 mph59%29.91 "Hg12 mi
8:00 PM74 °FPassing clouds.3 mph56%29.90 "Hg12 mi
7:00 PM77 °FPassing clouds.5 mph45%29.89 "Hg12 mi
6:00 PM77 °FPassing clouds.3 mph46%29.89 "Hg12 mi
5:00 PM83 °FScattered clouds.2 mph44%29.89 "Hg12 mi
4:00 PM82 °FScattered clouds.5 mph45%29.89 "Hg12 mi
2:00 PM80 °FScattered clouds.3 mph46%29.90 "Hg12 mi
12:00 PM77 °FPassing clouds.5 mph48%29.93 "Hg12 mi
11:00 AM75 °FPassing clouds.7 mph50%29.93 "Hg12 mi
9:00 AM70 °FPassing clouds.3 mph58%29.96 "Hg12 mi
8:00 AM67 °FPassing clouds.5 mph71%29.93 "Hg12 mi
7:00 AM63 °FPassing clouds.2 mph76%29.95 "Hg12 mi
6:00 AM62 °FPassing clouds.3 mph74%29.94 "Hg12 mi
5:00 AM61 °FPassing clouds.3 mph78%29.95 "Hg12 mi
Weather by CustomWeather, © 2016

See weather overviewHow to use our weather pages